User: anonymous   Login
Location: Daytona Beach
(29.2106°N, 81.0231°W)
Time: 16:50:12
(UTC-04:00)
Language:

JY1SAT - Orbit

View from above orbital plane
View from above orbital plane
View from above satellite
View from above satellite

Ground track
Ground track

The orbit data is extracted from the following two-line orbital elements,

1 43803U 18099AX  21262.44734287  .00000139  00000-0  17464-4 0  9996
2 43803  97.6556 331.0127 0016422  96.0713 264.2380 14.95975259152544
Epoch (UTC): 19 September 2021 10:44:10
Eccentricity: 0.0016422
inclination: 97.6556°
perigee height: 568 km
apogee height: 591 km
right ascension of ascending node: 331.0127°
argument of perigee: 96.0713°
revolutions per day: 14.95975259
mean anomaly at epoch: 264.2380°
orbit number at epoch: 15254

The dashed part of the orbit path shows where the satellite is in the earth's shadow,  

DLR